Regional Weather Roundup
Issued by NWS San Angelo, TX

Home | Current Version | Previous Version | Text Only | Print | Product List | Glossary On
Versions: 1 2 3 4 5 6 7 8 9 10 11 12 13 14 15 16 17 18 19 20 21 22 23 24 25 26 27 28 29 30 31 32 33 34 35 36 37 38 39 40 41 42 43 44 45 46 47 48 49 50
000
ASUS44 KSJT 241102
RWRSJT
WEST CENTRAL TEXAS REGIONAL WEATHER ROUNDUP
NATIONAL WEATHER SERVICE SAN ANGELO TX
600 AM CDT SUN JUL 24 2016

NOTE: "FAIR" INDICATES FEW OR NO CLOUDS BELOW 12,000 FEET WITH NO
SIGNIFICANT WEATHER AND/OR OBSTRUCTIONS TO VISIBILITY.

TXZ049-054-064>066-071>073-076>078-098-099-113-114-127-128-139-140-
154-155-168>170-241200
...LOCATIONS ACROSS WEST CENTRAL TEXAS...

CITY           SKY/WX    TMP DP  RH WIND       PRES   REMARKS
SAN ANGELO     CLEAR     80  68  66 S7        29.94S
ABILENE        CLEAR     78  65  63 S10       29.96R
DYESS AFB      CLEAR     79  66  64 SE10      29.94R
JUNCTION       CLEAR     78  68  71 VRB3      29.97S
SWEETWATER     CLEAR     77  60  55 S9        29.99S
BROWNWOOD      NOT AVBL
COLEMAN        SUNNY     77  66  67 S6        29.96S
SONORA         CLEAR     79  70  73 S9        30.01S
OZONA          FAIR      77  66  69 S7        30.00R
BRADY          NOT AVBL
$$

TEXAS PANHANDLE/OKLAHOMA PANHANDLE

CITY           SKY/WX    TMP DP  RH WIND       PRES   REMARKS
AMARILLO       CLOUDY    71  57  61 SW8       30.05S
BORGER         MOCLDY    78  59  51 CALM      30.01F
CANADIAN       MOCLDY    77  63  61 S3        29.96S
DALHART        CLEAR     71  54  54 S7        30.06S
DUMAS          CLOUDY    72  54  52 S7        30.06S
GUYMON         NOT AVBL
HEREFORD       CLOUDY    71  58  63 SE6       30.07R
PAMPA          NOT AVBL
PERRYTON       CLOUDY    75  62  62 SW5       29.99S
$$

SOUTHERN PANHANDLE/SOUTH PLAINS/ROLLING PLAINS

CITY           SKY/WX    TMP DP  RH WIND       PRES   REMARKS
LUBBOCK        PTCLDY    73  59  61 S5        30.01F
SNYDER           N/A     75  60  59 S6        29.98S
CHILDRESS      CLEAR     77  61  57 S8        29.93S
SEMINOLE       SUNNY     72  55  56 CALM      30.02R
$$

PERMIAN BASIN

CITY           SKY/WX    TMP DP  RH WIND       PRES   REMARKS
MIDLAND        CLEAR     80  59  48 S12       29.97S
ODESSA         CLEAR     81  59  47 S14       29.99R
WINK           CLEAR     78  56  46 SE12      29.93S
$$

FAR WEST/SOUTHWEST MOUNTAINS/TRANS PECOS

CITY           SKY/WX    TMP DP  RH WIND       PRES   REMARKS
ALPINE         SUNNY     72  55  53 SW7       30.11S
DRYDEN           N/A     80  65  59 E13       29.92R
EL PASO        CLEAR     82  44  26 S3        29.95S
FORT STOCKTON  CLEAR     78  59  51 SE13G23   29.95S
GUADALUPE PASS CLEAR     71  54  54 NE21      30.12F
MARFA          CLEAR     62  52  69 CALM      30.11R
PECOS          SUNNY     77  56  48 E12       29.92R
$$

DALLAS/FORT WORTH METROPLEX

CITY           SKY/WX    TMP DP  RH WIND       PRES   REMARKS
DFW AIRPORT    PTCLDY    82  71  69 S6        29.92R
FTW MEACHAM    PTCLDY    82  70  66 S5        29.92R
DAL-EXECUTIVE  PTCLDY    80  70  71 S3        29.93R
GRAND PRAIRIE  PTCLDY    82  69  66 S3        29.95R
ADDISON        CLEAR     81  72  74 S6        29.94S
MESQUITE       MOSUNNY   76  74  93 SE5       29.94R
LANCASTER      SUNNY     79  72  78 CALM      29.94R
$$

NORTH CENTRAL TEXAS

CITY           SKY/WX    TMP DP  RH WIND       PRES   REMARKS
SHRMAN/DENISON NOT AVBL
GAINESVILLE    NOT AVBL
BRIDGEPORT     MOSUNNY   73  70  89 CALM      29.95R
DENTON         PTCLDY    80  73  79 SE7       29.92R
WAXAHACHIE     SUNNY     76  72  85 SE3       29.95R
GRANBURY       SUNNY     82  70  67 SE3       29.94R
$$

WESTERN NORTH TEXAS

CITY           SKY/WX    TMP DP  RH WIND       PRES   REMARKS
WICHITA FALLS  PTCLDY    75  67  76 CALM      29.92R
VERNON         SUNNY     78  62  56 S7        29.92S
BRECKENRIDGE   NOT AVBL
COMANCHE       CLEAR     79  70  74 S9        29.95R
$$

CENTRAL AND SOUTH CENTRAL TEXAS

CITY           SKY/WX    TMP DP  RH WIND       PRES   REMARKS
AUSTIN/BERGSTM PTCLDY    78  76  93 S5        29.94R
WACO           PTCLDY    80  72  76 S9        29.93R
HILLSBORO      SUNNY     78  71  79 S5        29.94R
TEMPLE         CLEAR     77  74  90 SE7       29.94S
KILLEEN-GRAY   CLEAR     78  73  84 S8        29.94R
FORT HOOD      CLEAR     77  72  84 S7        29.92R
GEORGETOWN     CLEAR     81  72  74 S9        29.94S
LAGO VISTA     FAIR      78  73  83 S5        29.97S
SAN MARCOS     MOCLDY    77  75  94 SW6       29.97R
NEW BRAUNFELS  CLOUDY    79  75  87 S6        29.94R
RANDOLPH AFB   MOCLDY    78  77  98 S8        29.94F
SAN ANTONIO    MOCLDY    78  74  87 S7        29.96R
STINSON        PTCLDY    78  74  87 SE3       29.93R
PLEASANTON     NOT AVBL
LA GRANGE      NOT AVBL
GIDDINGS       MOSUNNY   76  74  92 CALM      29.99R
$$

EAST TEXAS

CITY           SKY/WX    TMP DP  RH WIND       PRES   REMARKS
PARIS          PTCLDY    73  63  68 E8        29.95S
CLARKSVILLE    NOT AVBL
TYLER          CLEAR     78  72  81 S7        29.95R
LONGVIEW       CLEAR     76  74  93 S5        29.94R
PALESTINE      SUNNY     78  75  90 CALM      29.96S
NACOGDOCHES    CLOUDY   N/A N/A N/A S3        29.94S
$$

TEXAS HILL COUNTRY AND EDWARDS PLATEAU

CITY           SKY/WX    TMP DP  RH WIND       PRES   REMARKS
LLANO          SUNNY     75  75 100 CALM      29.98S
HORSESHOE BAY  FAIR      77  72  84 CALM      29.96R
KERRVILLE      CLOUDY    76  73  90 SE6       29.99S
FREDERICKSBRG  CLEAR     74  68  82 S5        29.99R
ROCKSPRINGS    NOT AVBL
HONDO          CLOUDY    78  73  84 E7        29.97R
UVALDE         SUNNY     76  71  85 E6        29.94S
DEL RIO        CLEAR     82  71  69 E8        29.90R
$$

SOUTHEAST TEXAS

CITY           SKY/WX    TMP DP  RH WIND       PRES   REMARKS
COLLEGE STN    PTCLDY    78  76  93 SE3       29.95R
CALDWELL       SUNNY     75  75 100 CALM      29.98R
CROCKETT       NOT AVBL
BRENHAM        CLEAR     78  76  95 CALM      29.95S
HUNTSVILLE     CLEAR     79  75  87 S3        29.96R
CONROE         MOCLDY    77  74  90 CALM      29.96R
HOUSTON BUSH   PTCLDY    80  76  87 CALM      29.95R
HOUSTON HOBBY  PTCLDY    79  75  87 CALM      29.94R
PERLAND        PTCLDY    80  76  87 CALM      29.95R
WHARTON        MOSUNNY   75  73  95 CALM      29.94S FOG
$$

THE UPPER TEXAS COAST

CITY           SKY/WX    TMP DP  RH WIND       PRES   REMARKS
ORANGE         MOSUNNY   81  74  80 CALM      29.96R
PORT ARTHUR    CLEAR     78  76  93 CALM      29.94R
GALVESTON      PTCLDY    84  77  79 SW8       29.95R
ANGLETON       CLEAR     79  76  90 CALM      29.94R
BAY CITY       SUNNY     78  77  95 CALM      29.94R
$$

TEXAS COASTAL BEND, RIO GRANDE PLAINS DEEP SOUTH TEXAS

CITY           SKY/WX    TMP DP  RH WIND       PRES   REMARKS
VICTORIA       PTCLDY    77  75  93 CALM      29.93S
BEEVILLE       FAIR      75  75 100 CALM      29.92S
ROCKPORT       PTCLDY    83  76  79 CALM      29.91R
PORT ARANSAS   MOSUNNY   83  78  83 S10       29.91R
PORT LAVACA    PTSUNNY   79  77  95 CALM      29.92S
CORPUS CHRISTI PTCLDY    79  75  87 CALM      29.90S
KINGSVILLE NAS CLEAR     77  77 100 SE6       29.89F
COTULLA        CLEAR     80  72  76 E6        29.90S
LAREDO         CLEAR     80  74  81 SE9       29.89S
BROWNSVILLE    CLEAR     79  76  90 SE3       29.90R
PORT ISABEL    CLEAR     82  77  84 S7        29.89S
HEBBRONVILLE   SUNNY     77  74  90 SE6       29.91S
MCALLEN        CLEAR     80  75  84 SE7       29.88S
WESLACO        CLEAR     74  13  10 SE3       29.88S
FALFURRIAS     SUNNY     76  73  91 E3        29.89S
EDINBURG       MOSUNNY   78  74  87 SE5       29.89S
$$



USA.gov is the U.S. government's official web portal to all federal, state and local government web resources and services.